DECAYED

STARLINK-1929, 46788 (Decayed)

Orbit data source: Space-Track

STARLINK-1929, 46788 was a payload satellite owned by SpaceX/Seattle (US) in LEO that was launched on Sat, 24 Oct 2020 UTC via an FALCON 9 launch vehicle from the Air Force Eastern Test Range (AFETR). Payload-class satellites include a variety of spacecraft equipped with specific instruments for various scientific and technological missions. These include communications satellites like Starlink; space stations such as the ISS; scientific satellites like the Hubble; Earth observation satellites from companies like Planet Labs, Umbra, and HawkEye 360; GPS; miniature CubeSats for education and research; and military/defense satellites.

Not visible in the next 10 days
Identifier
46788, 2020-074BB
Orbit
Decayed
Last TLE update
5 months ago
Origin
Manufacturer
SpaceX/Seattle
Mission
Decayed Commercial Communications
Bus & Motor
STARLINK, Unknown motor
Mass
260 kg wet, ~248 kg dry
Launch date (UTC)
2020-10-24 (5 years ago)
Launch vehicle
FALCON 9
Launch site
Air Force Eastern Test Range (AFETR)
Object type
Payload
Rocket body
Debris
Shape & HBR
Box + 1 Pan, 8.86 m
Radar Cross Section
13.562 m², Large (>1 m²)

Expand to show TLE details & history

TLE from 5 months ago
0 STARLINK-1929
1 46788U 20074BB  25031.57417929  .45515843  12194-4  62128-3 0  9999
2 46788  53.0145 261.9859 0024138 155.8430 290.3215 16.46739593236654
Epoch: 2025-01-31T13:46Z
TLE epoch observation values (Epoch: 2025-01-31T13:46:49.09Z)
Latitude
52.97979°
Longitude
7.45171°
Altitude
148.924 km
Speed
7.827 km/s
True Right ascension
23h 00m 45s
True Declination
52° 47' 56"
Sunlit
Object was in daylight at epoch
Visualization orbit readout
Visualization observer readout
Orbital elements
Apogee altitude
163.982 km
Perigee altitude
132.476 km
Semi-major axis
6,526.366 km
Eccentricity
0.00241
Inclination
53.0145°
RAAN
261.9859°
Arg. of periapsis
155.843°
True anomaly
Unknown
Mean anomaly
290.3215°
Eccentric anomaly
Unknown
Mean motion
4.11657 °/min
Orbital period
87.45 mins
BSTAR
0.00062128
Loading maneuver chart data...
Loading SW <> Apogee altitude chart data...

STARLINK-1929 Visibility

Observer location: undefined°, undefined°

This satellite is decayed
Span
Click to sort rows by Start time (UTC) header in descending order
Start Az.
Max El. time (UTC)
Max El. Az.
Max El.
End time (UTC)
End Az.
|